Hourly Weather Bolyachiv

Today, 24 July, Saturday

Time Temperature Precipitation Wind Pressure Humidity
00:00 +19°C° 0 mm 2 mps 745 mmHg 66%
01:00 +19°C° 0 mm 2 mps 745 mmHg 66%
02:00 +19°C° 0 mm 2 mps 745 mmHg 66%
03:00 +19°C° 0 mm 2 mps 745 mmHg 67%
04:00 +19°C° 0 mm 2 mps 745 mmHg 68%
05:00 +19°C° 0 mm 2 mps 745 mmHg 69%
06:00 +19°C° 0 mm 2 mps 745 mmHg 70%
07:00 +19°C° 0 mm 2 mps 745 mmHg 72%
08:00 +20°C° 0 mm 1 mps 745 mmHg 73%
09:00 +21°C° 0 mm 2 mps 745 mmHg 68%
10:00 +23°C° 0 mm 2 mps 745 mmHg 63%
11:00 +24°C° 0 mm 2 mps 746 mmHg 57%
12:00 +25°C° 0 mm 2 mps 745 mmHg 54%
13:00 +25°C° 0 mm 2 mps 745 mmHg 52%
14:00 +26°C° 0 mm 2 mps 745 mmHg 49%
15:00 +25°C° 0 mm 2 mps 745 mmHg 54%
16:00 +25°C° 0 mm 2 mps 746 mmHg 58%
17:00 +24°C° 0 mm 1 mps 746 mmHg 63%
18:00 +23°C° 0 mm 1 mps 746 mmHg 65%
19:00 +23°C° 0 mm 1 mps 746 mmHg 66%
20:00 +22°C° 0 mm 1 mps 746 mmHg 68%
21:00 +22°C° 0 mm 1 mps 746 mmHg 68%
22:00 +22°C° 0 mm 1 mps 746 mmHg 68%
23:00 +21°C° 0 mm 1 mps 746 mmHg 68%

Tomorrow, 25 July, Sunday

Time Temperature Precipitation Wind Pressure Humidity
00:00 +21°C° 0 mm 1 mps 747 mmHg 68%
01:00 +21°C° 0 mm 1 mps 747 mmHg 68%
02:00 +21°C° 0 mm 1 mps 747 mmHg 68%
03:00 +21°C° 0 mm 1 mps 747 mmHg 69%
04:00 +21°C° 0 mm 1 mps 747 mmHg 69%
05:00 +19°C° 0 mm 0 mps 747 mmHg 70%
06:00 +19°C° 0 mm 0 mps 747 mmHg 69%
07:00 +20°C° 0 mm 0 mps 747 mmHg 69%
08:00 +20°C° 0 mm 0 mps 747 mmHg 68%
09:00 +21°C° 0 mm 0 mps 748 mmHg 64%
10:00 +24°C° 0 mm 1 mps 748 mmHg 60%
11:00 +25°C° 0 mm 1 mps 748 mmHg 57%
12:00 +26°C° 0 mm 1 mps 748 mmHg 52%
13:00 +27°C° 0 mm 1 mps 748 mmHg 48%
14:00 +27°C° 0 mm 1 mps 748 mmHg 44%
15:00 +27°C° 0 mm 1 mps 748 mmHg 45%
16:00 +27°C° 0 mm 1 mps 748 mmHg 46%
17:00 +27°C° 0 mm 1 mps 748 mmHg 47%
18:00 +25°C° 0 mm 1 mps 748 mmHg 52%
19:00 +24°C° 0 mm 1 mps 748 mmHg 57%
20:00 +22°C° 0 mm 1 mps 748 mmHg 62%
21:00 +22°C° 0 mm 1 mps 748 mmHg 62%
22:00 +22°C° 0 mm 1 mps 748 mmHg 62%
23:00 +21°C° 0 mm 1 mps 748 mmHg 63%

Day after tomorrow, 26 July, Monday

Time Temperature Precipitation Wind Pressure Humidity
00:00 +21°C° 0 mm 1 mps 748 mmHg 62%
01:00 +21°C° 0 mm 1 mps 748 mmHg 61%
02:00 +21°C° 0 mm 1 mps 748 mmHg 60%
03:00 +21°C° 0 mm 1 mps 748 mmHg 60%
04:00 +20°C° 0 mm 1 mps 748 mmHg 61%
05:00 +19°C° 0 mm 2 mps 748 mmHg 61%
06:00 +20°C° 0 mm 2 mps 749 mmHg 59%
07:00 +23°C° 0 mm 2 mps 749 mmHg 58%
08:00 +24°C° 0 mm 2 mps 749 mmHg 57%
09:00 +25°C° 0 mm 2 mps 749 mmHg 54%
10:00 +26°C° 0 mm 3 mps 749 mmHg 51%
11:00 +27°C° 0 mm 3 mps 749 mmHg 48%
12:00 +27°C° 0 mm 3 mps 749 mmHg 48%
13:00 +28°C° 0 mm 3 mps 749 mmHg 48%
14:00 +28°C° 0 mm 3 mps 749 mmHg 49%
15:00 +28°C° 0 mm 2 mps 749 mmHg 50%
16:00 +28°C° 0 mm 2 mps 748 mmHg 51%
17:00 +28°C° 0 mm 2 mps 748 mmHg 52%
18:00 +26°C° 0 mm 2 mps 748 mmHg 56%
19:00 +25°C° 0 mm 2 mps 748 mmHg 60%
20:00 +22°C° 0 mm 3 mps 748 mmHg 64%
21:00 +21°C° 0 mm 3 mps 748 mmHg 65%
22:00 +20°C° 0 mm 3 mps 748 mmHg 67%
23:00 +20°C° 0 mm 3 mps 748 mmHg 68%

27 July, Tuesday

Time Temperature Precipitation Wind Pressure Humidity
00:00 +19°C° 0 mm 3 mps 748 mmHg 69%
01:00 +19°C° 0 mm 3 mps 748 mmHg 71%
02:00 +19°C° 0 mm 3 mps 748 mmHg 72%
03:00 +19°C° 0 mm 3 mps 748 mmHg 72%
04:00 +19°C° 0 mm 3 mps 748 mmHg 71%
05:00 +19°C° 0 mm 3 mps 748 mmHg 70%
06:00 +20°C° 0 mm 3 mps 748 mmHg 66%
07:00 +22°C° 0 mm 4 mps 748 mmHg 62%
08:00 +25°C° 0 mm 5 mps 748 mmHg 58%
09:00 +26°C° 0 mm 5 mps 748 mmHg 54%
10:00 +28°C° 0 mm 5 mps 748 mmHg 49%
11:00 +30°C° 0 mm 5 mps 748 mmHg 45%
12:00 +30°C° 0 mm 5 mps 748 mmHg 43%
13:00 +32°C° 0 mm 5 mps 748 mmHg 42%
14:00 +32°C° 0 mm 5 mps 747 mmHg 40%
15:00 +32°C° 0 mm 5 mps 747 mmHg 43%
16:00 +32°C° 0 mm 4 mps 747 mmHg 45%
17:00 +32°C° 0 mm 4 mps 747 mmHg 48%
18:00 +29°C° 0 mm 4 mps 746 mmHg 54%
19:00 +27°C° 0 mm 4 mps 746 mmHg 60%
20:00 +25°C° 0 mm 4 mps 746 mmHg 66%
21:00 +24°C° 0.1 mm 3 mps 746 mmHg 68%
22:00 +24°C° 0.1 mm 3 mps 746 mmHg 70%
23:00 +22°C° 0.1 mm 3 mps 746 mmHg 72%

28 July, Wednesday

Time Temperature Precipitation Wind Pressure Humidity
00:00 +21°C° 0.8 mm 3 mps 746 mmHg 77%
01:00 +21°C° 0.8 mm 2 mps 746 mmHg 82%
02:00 +20°C° 0.8 mm 2 mps 746 mmHg 88%
03:00 +20°C° 0.3 mm 2 mps 745 mmHg 88%
04:00 +20°C° 0.3 mm 3 mps 745 mmHg 88%
05:00 +19°C° 0.3 mm 4 mps 744 mmHg 88%
06:00 +20°C° 0.4 mm 4 mps 744 mmHg 85%
07:00 +21°C° 0.4 mm 4 mps 744 mmHg 81%
08:00 +23°C° 0.4 mm 4 mps 744 mmHg 78%
09:00 +25°C° 0.2 mm 4 mps 744 mmHg 73%
10:00 +27°C° 0.2 mm 4 mps 744 mmHg 67%
11:00 +29°C° 0.2 mm 4 mps 743 mmHg 62%
12:00 +30°C° 0 mm 4 mps 743 mmHg 59%
13:00 +32°C° 0 mm 4 mps 743 mmHg 56%
14:00 +33°C° 0 mm 4 mps 743 mmHg 54%
15:00 +32°C° 0 mm 4 mps 743 mmHg 54%
16:00 +32°C° 0 mm 4 mps 743 mmHg 55%
17:00 +32°C° 0 mm 4 mps 742 mmHg 55%
18:00 +29°C° 0 mm 3 mps 742 mmHg 60%
19:00 +28°C° 0 mm 3 mps 742 mmHg 66%
20:00 +26°C° 0 mm 2 mps 742 mmHg 71%
21:00 +25°C° 0 mm 2 mps 742 mmHg 73%
22:00 +24°C° 0 mm 1 mps 742 mmHg 76%
23:00 +23°C° 0 mm 1 mps 742 mmHg 78%

29 July, Thursday

Time Temperature Precipitation Wind Pressure Humidity
00:00 +23°C° 0 mm 1 mps 742 mmHg 79%
01:00 +23°C° 0 mm 1 mps 742 mmHg 80%
02:00 +22°C° 0 mm 1 mps 742 mmHg 81%
03:00 +22°C° 0 mm 1 mps 742 mmHg 82%
04:00 +22°C° 0 mm 1 mps 742 mmHg 82%
05:00 +22°C° 0 mm 1 mps 742 mmHg 83%
06:00 +23°C° 0 mm 1 mps 742 mmHg 77%
07:00 +25°C° 0 mm 1 mps 743 mmHg 71%
08:00 +27°C° 0 mm 2 mps 743 mmHg 66%
09:00 +28°C° 0 mm 2 mps 743 mmHg 61%
10:00 +29°C° 0 mm 2 mps 743 mmHg 57%
11:00 +30°C° 0 mm 1 mps 743 mmHg 53%
12:00 +30°C° 0.1 mm 2 mps 743 mmHg 56%
13:00 +29°C° 0.1 mm 3 mps 743 mmHg 58%
14:00 +29°C° 0.1 mm 4 mps 743 mmHg 61%
15:00 +27°C° 1 mm 3 mps 743 mmHg 67%
16:00 +26°C° 1 mm 3 mps 743 mmHg 72%
17:00 +25°C° 1 mm 2 mps 743 mmHg 78%
18:00 +24°C° 0.2 mm 2 mps 743 mmHg 80%
19:00 +23°C° 0.2 mm 1 mps 743 mmHg 83%
20:00 +23°C° 0.2 mm 1 mps 743 mmHg 85%
21:00 +22°C° 0 mm 1 mps 743 mmHg 86%
22:00 +22°C° 0 mm 1 mps 743 mmHg 87%
23:00 +20°C° 0 mm 2 mps 743 mmHg 88%
Show more

We Need Your Consent

Meteoprog and our Service Providers may store and access personal data such as cookies, device identifiers or other similar technologies on your device and process such data to personalise content and ads, as well as provide social media features and to analyse the traffic.

  • Store and/or access information on your device

    Cookies, device identifiers or other information can be stored or accessed on your device for the purposes indicated above.

  • Personalised ads and content, ad and content measurement, audience insights, and products development

    Ads and content can be personalised based on a profile. More data can be added to better personalise ads and content. Ad and content performance can be measured. Insights about the audience who saw the ads and content can be derived. Such data can be used to develop or improve user’s experience, systems and software.

By clicking ‘I Agree’ you will allow the use of indicated cookies, device identifiers, web beacons or other similar technologies. Your settings can be changed in the browser on your device.

For certain purposes, legitimate interests may be relied on, rather than consent. You can read more about this in our Privacy and Cookie Policy.